Location: Montr�al
(45.5000°N, 73.5830°W)
Time: 21:56:59
(UTC-04:00)

Cosmos 1151 Rocket - Visible Passes

Search period start: 28 April 2016 00:00
Search period end: 08 May 2016 00:00
Orbit: 594 x 615 km, 82.5° (Epoch: 28 April)

Date Brightness Start Highest point End Pass type
(mag) Time Alt. Az. Time Alt. Az. Time Alt. Az.
28 Apr 3.3 05:07:52 10° N 05:12:16 75° E 05:16:36 10° SSE visible
29 Apr 6.2 03:44:56 10° NE 03:47:03 13° ENE 03:49:09 10° E visible
30 Apr 5.8 03:56:53 10° NNE 04:00:10 20° ENE 04:03:25 10° ESE visible
01 May 5.0 04:09:18 10° N 04:13:14 31° ENE 04:17:06 10° SE visible
02 May 4.0 04:21:56 10° N 04:26:12 51° ENE 04:30:25 10° SSE visible
03 May 3.1 04:34:43 10° N 04:39:07 85° E 04:43:26 10° S visible
04 May 5.9 03:11:29 10° NNE 03:13:58 15° ENE 03:16:25 10° ESE visible
04 May 3.1 04:47:39 10° NNW 04:51:57 58° W 04:56:11 10° S visible
05 May 5.4 03:23:35 10° NNE 03:27:04 23° ENE 03:30:29 10° ESE visible
05 May 3.7 05:00:46 10° NNW 05:04:43 35° W 05:08:38 10° SSW visible
06 May 4.6 03:36:04 10° N 03:40:06 35° ENE 03:44:04 10° SE visible
07 May 3.6 03:48:45 10° N 03:53:03 58° E 03:57:18 10° SSE visible
